CCA3322 ZUCK-ZUUU

Flight info

Callsign CCA3322
Flight time 0h 41m
Altitude 18900
Route ZUCK URGEG W231 EKOKA EKOK9L ZUTF
Aircraft A320/M-SDE1GH/LB1

Departure

Time 2026-04-22 13:17
Airport Chongqing Jiangbei International Airport (ZUCK)

Arrival

Time 2026-04-22 13:58
Airport Chengdu Shuangliu International Airport (ZUUU)
Time Latitude Longitude Altitude Speed Heading
2026-04-22 13:06 29.71957 106.65099 1374 ft 0 kts 198°
2026-04-22 13:07 29.71982 106.65109 1371 ft 6 kts 198°
2026-04-22 13:07 29.72019 106.65123 1371 ft 5 kts 201°
2026-04-22 13:08 29.72037 106.65133 1370 ft 2 kts 220°
2026-04-22 13:08 29.72044 106.65143 1370 ft 2 kts 272°
2026-04-22 13:08 29.72042 106.65155 1371 ft 2 kts 287°
2026-04-22 13:08 29.72042 106.65156 1372 ft 0 kts 287°
2026-04-22 13:09 29.72044 106.65150 1370 ft 1 kts 287°
2026-04-22 13:09 29.72047 106.65137 1373 ft 2 kts 287°
2026-04-22 13:10 29.72052 106.65117 1372 ft 3 kts 287°
2026-04-22 13:10 29.72070 106.65050 1373 ft 14 kts 287°
2026-04-22 13:10 29.72099 106.64935 1373 ft 21 kts 287°
2026-04-22 13:10 29.72115 106.64875 1374 ft 9 kts 287°
2026-04-22 13:11 29.72165 106.64857 1372 ft 10 kts 15°
2026-04-22 13:11 29.72188 106.64929 1373 ft 15 kts 107°
2026-04-22 13:11 29.72151 106.65072 1372 ft 23 kts 106°
2026-04-22 13:11 29.72100 106.65278 1373 ft 30 kts 106°
2026-04-22 13:12 29.72037 106.65519 1374 ft 32 kts 108°
2026-04-22 13:12 29.71969 106.65770 1374 ft 34 kts 107°
2026-04-22 13:12 29.71908 106.66012 1374 ft 25 kts 108°
2026-04-22 13:12 29.71841 106.66076 1373 ft 12 kts 198°
2026-04-22 13:13 29.71752 106.66044 1373 ft 15 kts 197°
2026-04-22 13:13 29.71643 106.66006 1373 ft 18 kts 196°
2026-04-22 13:13 29.71530 106.65968 1372 ft 13 kts 195°
2026-04-22 13:13 29.71480 106.66024 1374 ft 7 kts 108°
2026-04-22 13:14 29.71479 106.66029 1373 ft 0 kts 108°
2026-04-22 13:15 29.71475 106.66042 1374 ft 5 kts 108°
2026-04-22 13:16 29.71457 106.66110 1372 ft 12 kts 106°
2026-04-22 13:16 29.71521 106.66172 1373 ft 24 kts 16°
2026-04-22 13:16 29.71949 106.66319 1372 ft 104 kts 17°
2026-04-22 13:16 29.72884 106.66643 1433 ft 171 kts 17°
2026-04-22 13:17 29.74073 106.67059 2122 ft 189 kts 17°
2026-04-22 13:17 29.75368 106.67523 2931 ft 200 kts 17°
2026-04-22 13:17 29.76713 106.67992 3829 ft 203 kts 14°
2026-04-22 13:17 29.78164 106.68060 4625 ft 220 kts 351°
2026-04-22 13:18 29.79715 106.67519 5365 ft 244 kts 340°
2026-04-22 13:18 29.81363 106.66814 6213 ft 262 kts 339°
2026-04-22 13:18 29.83112 106.66029 7082 ft 274 kts 339°
2026-04-22 13:18 29.84901 106.65240 7993 ft 278 kts 339°
2026-04-22 13:19 29.86728 106.64436 8849 ft 285 kts 339°
2026-04-22 13:19 29.88592 106.63606 9707 ft 288 kts 339°
2026-04-22 13:19 29.90483 106.62759 10471 ft 297 kts 339°
2026-04-22 13:19 29.92442 106.61879 11313 ft 307 kts 339°
2026-04-22 13:20 29.94455 106.60978 12236 ft 313 kts 339°
2026-04-22 13:20 29.96499 106.60070 13225 ft 316 kts 339°
2026-04-22 13:20 29.98591 106.59145 13961 ft 328 kts 339°
2026-04-22 13:20 30.00754 106.58191 14676 ft 338 kts 339°
2026-04-22 13:21 30.02973 106.57214 15453 ft 344 kts 339°
2026-04-22 13:21 30.05231 106.56225 16283 ft 348 kts 339°
2026-04-22 13:21 30.07508 106.55235 17152 ft 350 kts 339°
2026-04-22 13:21 30.09790 106.54245 18038 ft 350 kts 339°
2026-04-22 13:22 30.12065 106.53261 18956 ft 348 kts 339°
2026-04-22 13:22 30.14340 106.52279 19735 ft 351 kts 339°
2026-04-22 13:22 30.16650 106.51285 19996 ft 369 kts 340°
2026-04-22 13:22 30.19138 106.50221 20013 ft 392 kts 340°
2026-04-22 13:23 30.21767 106.49102 20066 ft 413 kts 340°
2026-04-22 13:23 30.24559 106.47920 20138 ft 429 kts 340°
2026-04-22 13:23 30.27331 106.46750 20154 ft 430 kts 340°
2026-04-22 13:23 30.30137 106.45570 20142 ft 428 kts 340°
2026-04-22 13:24 30.32938 106.44399 20127 ft 428 kts 340°
2026-04-22 13:24 30.35741 106.43232 20117 ft 428 kts 340°
2026-04-22 13:24 30.38548 106.42070 20105 ft 429 kts 340°
2026-04-22 13:24 30.41358 106.40910 20106 ft 428 kts 340°
2026-04-22 13:25 30.44164 106.39757 20101 ft 428 kts 340°
2026-04-22 13:25 30.46972 106.38608 20096 ft 428 kts 341°
2026-04-22 13:25 30.49783 106.37464 20092 ft 428 kts 341°
2026-04-22 13:25 30.52595 106.36325 20087 ft 428 kts 341°
2026-04-22 13:26 30.55411 106.35192 20087 ft 428 kts 341°
2026-04-22 13:26 30.58201 106.33977 20084 ft 429 kts 335°
2026-04-22 13:26 30.60761 106.32207 20078 ft 429 kts 322°
2026-04-22 13:26 30.62854 106.29763 20093 ft 428 kts 307°
2026-04-22 13:27 30.64400 106.26821 20146 ft 427 kts 299°
2026-04-22 13:27 30.65849 106.23790 20137 ft 430 kts 299°
2026-04-22 13:27 30.67322 106.20774 20120 ft 428 kts 300°
2026-04-22 13:27 30.68800 106.17773 20109 ft 429 kts 300°
2026-04-22 13:28 30.70281 106.14767 20096 ft 428 kts 300°
2026-04-22 13:28 30.71761 106.11763 20082 ft 428 kts 300°
2026-04-22 13:28 30.73240 106.08766 20068 ft 427 kts 300°
2026-04-22 13:28 30.74720 106.05775 20053 ft 427 kts 299°
2026-04-22 13:29 30.75952 106.02635 20030 ft 427 kts 289°
2026-04-22 13:29 30.76565 105.99262 20022 ft 428 kts 275°
2026-04-22 13:29 30.76440 105.95820 20041 ft 427 kts 262°
2026-04-22 13:29 30.75831 105.92440 20083 ft 427 kts 257°
2026-04-22 13:30 30.75148 105.89067 20035 ft 430 kts 257°
2026-04-22 13:30 30.74490 105.85684 19977 ft 427 kts 257°
2026-04-22 13:30 30.73838 105.82324 19924 ft 426 kts 257°
2026-04-22 13:30 30.73183 105.78957 19876 ft 428 kts 257°
2026-04-22 13:31 30.72526 105.75587 19831 ft 427 kts 257°
2026-04-22 13:31 30.71872 105.72223 19784 ft 426 kts 257°
2026-04-22 13:31 30.71225 105.68858 19734 ft 426 kts 257°
2026-04-22 13:31 30.70581 105.65503 19688 ft 426 kts 257°
2026-04-22 13:32 30.69939 105.62144 19644 ft 426 kts 257°
2026-04-22 13:32 30.69299 105.58790 19598 ft 425 kts 257°
2026-04-22 13:32 30.68662 105.55438 19557 ft 424 kts 258°
2026-04-22 13:32 30.68031 105.52089 19508 ft 424 kts 258°
2026-04-22 13:33 30.67412 105.48781 19416 ft 425 kts 258°
2026-04-22 13:33 30.66792 105.45433 19322 ft 423 kts 258°
2026-04-22 13:33 30.66178 105.42097 19225 ft 422 kts 258°
2026-04-22 13:33 30.65583 105.38763 19131 ft 422 kts 260°
2026-04-22 13:34 30.65486 105.35360 19003 ft 422 kts 276°
2026-04-22 13:34 30.66244 105.32089 18892 ft 420 kts 292°
2026-04-22 13:34 30.67395 105.28969 18758 ft 420 kts 293°
2026-04-22 13:34 30.68546 105.25848 18542 ft 420 kts 293°
2026-04-22 13:35 30.69687 105.22734 18327 ft 417 kts 293°
2026-04-22 13:35 30.70820 105.19641 18107 ft 415 kts 293°
2026-04-22 13:35 30.71960 105.16561 17891 ft 415 kts 293°
2026-04-22 13:35 30.73104 105.13488 17680 ft 413 kts 293°
2026-04-22 13:36 30.74248 105.10429 17467 ft 412 kts 294°
2026-04-22 13:36 30.75392 105.07379 17258 ft 411 kts 294°
2026-04-22 13:36 30.76536 105.04339 17050 ft 409 kts 294°
2026-04-22 13:36 30.77678 105.01317 16840 ft 408 kts 294°
2026-04-22 13:37 30.78825 104.98299 16634 ft 408 kts 294°
2026-04-22 13:37 30.79971 104.95292 16430 ft 406 kts 294°
2026-04-22 13:37 30.81117 104.92301 16221 ft 405 kts 294°
2026-04-22 13:37 30.81880 104.90320 16098 ft 404 kts 294°
2026-04-22 13:38 30.83030 104.87339 15887 ft 403 kts 294°
2026-04-22 13:38 30.85331 104.81415 15486 ft 401 kts 294°
2026-04-22 13:38 30.86392 104.78700 15298 ft 400 kts 294°
2026-04-22 13:39 30.87544 104.75764 15089 ft 398 kts 295°
2026-04-22 13:39 30.88697 104.72840 14871 ft 397 kts 295°
2026-04-22 13:39 30.89852 104.69924 14660 ft 396 kts 295°
2026-04-22 13:39 30.91007 104.67020 14449 ft 395 kts 295°
2026-04-22 13:40 30.92161 104.64127 14236 ft 393 kts 295°
2026-04-22 13:40 30.93318 104.61243 14027 ft 392 kts 295°
2026-04-22 13:40 30.94475 104.58370 13812 ft 392 kts 295°
2026-04-22 13:40 30.95637 104.55498 13613 ft 392 kts 295°
2026-04-22 13:41 30.96796 104.52632 13411 ft 390 kts 294°
2026-04-22 13:41 30.97613 104.49632 13180 ft 389 kts 279°
2026-04-22 13:41 30.97667 104.46507 12974 ft 386 kts 262°
2026-04-22 13:41 30.96840 104.43553 12798 ft 385 kts 242°
2026-04-22 13:42 30.95208 104.41097 12661 ft 384 kts 222°
2026-04-22 13:42 30.92979 104.39411 12562 ft 383 kts 205°
2026-04-22 13:42 30.90508 104.38229 12431 ft 384 kts 201°
2026-04-22 13:42 30.88028 104.37082 12280 ft 382 kts 202°
2026-04-22 13:43 30.85569 104.35924 12118 ft 381 kts 202°
2026-04-22 13:43 30.83103 104.34771 11943 ft 381 kts 202°
2026-04-22 13:43 30.80646 104.33625 11766 ft 379 kts 202°
2026-04-22 13:43 30.78201 104.32486 11587 ft 379 kts 202°
2026-04-22 13:44 30.75757 104.31343 11413 ft 378 kts 202°
2026-04-22 13:44 30.73323 104.30197 11239 ft 377 kts 202°
2026-04-22 13:44 30.70895 104.29049 11056 ft 376 kts 202°
2026-04-22 13:44 30.68478 104.27900 10876 ft 375 kts 202°
2026-04-22 13:45 30.66069 104.26750 10699 ft 374 kts 202°
2026-04-22 13:45 30.63666 104.25598 10525 ft 373 kts 202°
2026-04-22 13:45 30.61285 104.24403 10301 ft 372 kts 208°
2026-04-22 13:45 30.59262 104.22566 10085 ft 371 kts 229°
2026-04-22 13:46 30.57941 104.20026 9883 ft 369 kts 249°
2026-04-22 13:46 30.57476 104.17162 9686 ft 361 kts 270°
2026-04-22 13:46 30.57924 104.14425 9472 ft 335 kts 290°
2026-04-22 13:46 30.58726 104.11988 9275 ft 313 kts 291°
2026-04-22 13:47 30.59778 104.09883 9047 ft 295 kts 313°
2026-04-22 13:47 30.61417 104.08569 8827 ft 285 kts 340°
2026-04-22 13:47 30.63370 104.08369 8634 ft 285 kts 10°
2026-04-22 13:47 30.65240 104.09121 8482 ft 284 kts 22°
2026-04-22 13:48 30.67072 104.09977 8304 ft 284 kts 21°
2026-04-22 13:48 30.68912 104.10799 8132 ft 283 kts 21°
2026-04-22 13:48 30.70746 104.11606 7967 ft 282 kts 21°
2026-04-22 13:48 30.72576 104.12415 7769 ft 281 kts 21°
2026-04-22 13:49 30.74401 104.13233 7607 ft 281 kts 21°
2026-04-22 13:49 30.76220 104.14053 7435 ft 280 kts 21°
2026-04-22 13:49 30.78032 104.14873 7258 ft 279 kts 21°
2026-04-22 13:49 30.79834 104.15690 7088 ft 278 kts 21°
2026-04-22 13:50 30.81533 104.16756 6918 ft 278 kts 36°
2026-04-22 13:50 30.83224 104.17812 6734 ft 277 kts 16°
2026-04-22 13:50 30.85126 104.17970 6590 ft 276 kts 350°
2026-04-22 13:50 30.86869 104.17095 6470 ft 275 kts 322°
2026-04-22 13:51 30.88066 104.15377 6399 ft 275 kts 295°
2026-04-22 13:51 30.88542 104.13263 6359 ft 275 kts 280°
2026-04-22 13:51 30.88673 104.11044 6315 ft 276 kts 262°
2026-04-22 13:51 30.87976 104.08997 6286 ft 274 kts 232°
2026-04-22 13:52 30.86490 104.07635 6302 ft 275 kts 204°
2026-04-22 13:52 30.84687 104.06893 6370 ft 275 kts 198°
2026-04-22 13:52 30.82860 104.06200 6386 ft 277 kts 198°
2026-04-22 13:52 30.81090 104.05474 6351 ft 261 kts 200°
2026-04-22 13:53 30.79443 104.04737 6216 ft 247 kts 201°
2026-04-22 13:53 30.77885 104.04013 6044 ft 236 kts 202°
2026-04-22 13:53 30.76383 104.03313 5827 ft 229 kts 202°
2026-04-22 13:53 30.74951 104.02648 5610 ft 215 kts 202°
2026-04-22 13:54 30.73610 104.02024 5283 ft 200 kts 202°
2026-04-22 13:54 30.72380 104.01450 4978 ft 181 kts 202°
2026-04-22 13:54 30.71256 104.00925 4670 ft 169 kts 202°
2026-04-22 13:54 30.70190 104.00427 4367 ft 161 kts 202°
2026-04-22 13:55 30.69183 103.99953 4038 ft 152 kts 202°
2026-04-22 13:55 30.68213 103.99495 3716 ft 149 kts 202°
2026-04-22 13:55 30.67258 103.99044 3413 ft 148 kts 202°
2026-04-22 13:55 30.66302 103.98598 3137 ft 151 kts 201°
2026-04-22 13:56 30.65326 103.98147 2893 ft 150 kts 201°
2026-04-22 13:56 30.64363 103.97704 2661 ft 148 kts 201°
2026-04-22 13:56 30.63412 103.97263 2436 ft 146 kts 202°
2026-04-22 13:56 30.62469 103.96824 2224 ft 146 kts 202°
2026-04-22 13:57 30.61520 103.96385 2057 ft 146 kts 201°
2026-04-22 13:57 30.60571 103.95955 1892 ft 147 kts 201°
2026-04-22 13:57 30.59641 103.95535 1726 ft 140 kts 201°
2026-04-22 13:57 30.58777 103.95136 1650 ft 118 kts 202°
2026-04-22 13:58 30.58248 103.94886 1647 ft 57 kts 202°
2026-04-22 13:58 30.57921 103.94734 1648 ft 41 kts 201°
2026-04-22 13:58 30.57724 103.94643 1647 ft 27 kts 198°
2026-04-22 13:58 30.57555 103.94605 1646 ft 23 kts 181°
2026-04-22 13:59 30.57414 103.94620 1647 ft 16 kts 172°
2026-04-22 13:59 30.57333 103.94666 1647 ft 11 kts 121°
2026-04-22 13:59 30.57305 103.94743 1647 ft 10 kts 111°
2026-04-22 13:59 30.57280 103.94818 1647 ft 10 kts 111°
2026-04-22 14:00 30.57255 103.94891 1648 ft 10 kts 111°
2026-04-22 14:00 30.57231 103.94962 1647 ft 9 kts 112°
2026-04-22 14:00 30.57207 103.95032 1647 ft 9 kts 112°
2026-04-22 14:00 30.57178 103.95096 1647 ft 8 kts 135°
2026-04-22 14:01 30.57155 103.95133 1647 ft 3 kts 123°
2026-04-22 14:01 30.57150 103.95142 1647 ft 3 kts 123°
2026-04-22 14:01 30.57148 103.95145 1647 ft 0 kts 123°